| time (UTC) | temp F | wind direction | speed MPH | gust MPH | rain 1hr in | rain 24hr in | rain mn in | humidity % | barometer mb |
| 20260505173037 | 78 | 183 | 6.0 | 15.0 | 0.00 | 0.00 | 0.00 | 44 | 1010.6 |
| 20260505171509 | 78 | 187 | 11.0 | 19.0 | 0.00 | 0.00 | 0.00 | 42 | 1010.7 |
| 20260505170013 | 78 | 171 | 10.0 | 17.0 | 0.00 | 0.00 | 0.00 | 44 | 1011.0 |
| 20260505164529 | 78 | 171 | 0.0 | 0.0 | 0.00 | 0.00 | 0.00 | 46 | 1011.2 |
| 20260505163013 | 78 | 163 | 0.0 | 0.0 | 0.00 | 0.00 | 0.00 | 48 | 1011.2 |
| 20260505153016 | 76 | 219 | 0.0 | 0.0 | 0.00 | 0.00 | 0.00 | 52 | 1011.5 |
| 20260505151519 | 75 | 169 | 0.0 | 1.0 | 0.00 | 0.00 | 0.00 | 53 | 1011.4 |
| 20260505124525 | 63 | 188 | 5.0 | 10.0 | 0.00 | 0.00 | 0.00 | 67 | 1012.5 |
| 20260505123020 | 62 | 183 | 4.0 | 13.0 | 0.00 | 0.00 | 0.00 | 68 | 1012.5 |
| 20260505121514 | 61 | 176 | 4.0 | 8.0 | 0.00 | 0.00 | 0.00 | 71 | 1012.3 |
| 20260505120019 | 60 | 180 | 4.0 | 10.0 | 0.00 | 0.00 | 0.00 | 72 | 1012.1 |
| 20260505114531 | 59 | 151 | 3.0 | 7.0 | 0.00 | 0.00 | 0.00 | 74 | 1012.0 |
| 20260505111530 | 58 | 160 | 2.0 | 6.0 | 0.00 | 0.00 | 0.00 | 75 | 1011.8 |
| 20260505101519 | 56 | 199 | 3.0 | 5.0 | 0.00 | 0.00 | 0.00 | 75 | 1011.1 |
| 20260505100020 | 56 | 168 | 3.0 | 5.0 | 0.00 | 0.00 | 0.00 | 75 | 1011.0 |
| 20260505094521 | 57 | 167 | 4.0 | 6.0 | 0.00 | 0.00 | 0.00 | 74 | 1011.0 |
| 20260505093005 | 57 | 166 | 3.0 | 7.0 | 0.00 | 0.00 | 0.00 | 74 | 1010.9 |
| 20260505083034 | 58 | 159 | 4.0 | 6.0 | 0.00 | 0.00 | 0.00 | 72 | 1010.9 |
| 20260505081503 | 58 | 151 | 2.0 | 6.0 | 0.00 | 0.00 | 0.00 | 72 | 1010.9 |
| 20260505073010 | 59 | 160 | 3.0 | 5.0 | 0.00 | 0.00 | 0.00 | 70 | 1010.6 |
| 20260505071510 | 59 | 149 | 2.0 | 4.0 | 0.00 | 0.00 | 0.00 | 70 | 1010.6 |
| 20260505064508 | 59 | 175 | 1.0 | 3.0 | 0.00 | 0.00 | 0.00 | 69 | 1010.6 |
| 20260505063015 | 60 | 176 | 1.0 | 3.0 | 0.00 | 0.00 | 0.00 | 69 | 1010.8 |
| 20260505061525 | 60 | 183 | 2.0 | 4.0 | 0.00 | 0.00 | 0.00 | 68 | 1010.9 |
| 20260505060010 | 60 | 170 | 2.0 | 5.0 | 0.00 | 0.00 | 0.00 | 68 | 1010.9 |
| 20260505053011 | 59 | 160 | 2.0 | 5.0 | 0.00 | 0.00 | 0.00 | 67 | 1010.8 |
| 20260505051512 | 59 | 159 | 2.0 | 5.0 | 0.00 | 0.00 | 0.00 | 67 | 1010.8 |
| 20260505034519 | 60 | 155 | 3.0 | 7.0 | 0.00 | 0.00 | 0.00 | 63 | 1010.4 |
| 20260505033026 | 60 | 163 | 4.0 | 7.0 | 0.00 | 0.00 | 0.00 | 63 | 1010.4 |
| 20260505030011 | 60 | 157 | 3.0 | 6.0 | 0.00 | 0.00 | 0.00 | 63 | 1010.5 |
| 20260505024520 | 60 | 159 | 3.0 | 5.0 | 0.00 | 0.00 | 0.00 | 64 | 1010.6 |
| 20260505023014 | 59 | 162 | 2.0 | 5.0 | 0.00 | 0.00 | 0.00 | 65 | 1010.6 |
| 20260505021526 | 59 | 152 | 2.0 | 5.0 | 0.00 | 0.00 | 0.00 | 64 | 1010.4 |
| 20260505020008 | 60 | 147 | 2.0 | 5.0 | 0.00 | 0.00 | 0.00 | 64 | 1010.4 |
| 20260505013013 | 61 | 155 | 1.0 | 5.0 | 0.00 | 0.00 | 0.00 | 60 | 1010.5 |
| 20260505011513 | 61 | 147 | 2.0 | 6.0 | 0.00 | 0.00 | 0.00 | 59 | 1010.1 |
| 20260505004510 | 62 | 152 | 2.0 | 6.0 | 0.00 | 0.00 | 0.00 | 59 | 1009.8 |
| 20260505003007 | 62 | 145 | 2.0 | 5.0 | 0.00 | 0.00 | 0.00 | 58 | 1009.8 |
| 20260505001519 | 63 | 165 | 3.0 | 6.0 | 0.00 | 0.00 | 0.00 | 56 | 1009.8 |
| 20260505000021 | 64 | 140 | 3.0 | 7.0 | 0.00 | 0.00 | 0.00 | 56 | 1009.8 |
| 20260504234512 | 65 | 159 | 2.0 | 6.0 | 0.00 | 0.00 | 0.00 | 54 | 1009.8 |
| 20260504233014 | 66 | 142 | 3.0 | 7.0 | 0.00 | 0.00 | 0.00 | 53 | 1009.8 |
| 20260504231510 | 67 | 156 | 3.0 | 6.0 | 0.00 | 0.00 | 0.00 | 51 | 1009.7 |
| 20260504224523 | 68 | 320 | 1.0 | 6.0 | 0.00 | 0.00 | 0.00 | 51 | 1009.8 |
| 20260504223012 | 69 | 134 | 2.0 | 6.0 | 0.00 | 0.00 | 0.00 | 49 | 1009.7 |
| 20260504221516 | 71 | 138 | 4.0 | 7.0 | 0.00 | 0.00 | 0.00 | 47 | 1009.7 |
| 20260504220022 | 72 | 142 | 4.0 | 11.0 | 0.00 | 0.00 | 0.00 | 45 | 1009.6 |
| 20260504214514 | 72 | 163 | 6.0 | 12.0 | 0.00 | 0.00 | 0.00 | 43 | 1009.7 |
| 20260504211516 | 72 | 181 | 5.0 | 10.0 | 0.00 | 0.00 | 0.00 | 46 | 1009.5 |
| 20260504210013 | 71 | 165 | 6.0 | 16.0 | 0.00 | 0.00 | 0.00 | 44 | 1009.6 |
| 20260504204524 | 72 | 157 | 4.0 | 15.0 | 0.00 | 0.00 | 0.00 | 43 | 1009.7 |
| 20260504203025 | 71 | 202 | 8.0 | 17.0 | 0.00 | 0.00 | 0.00 | 46 | 1009.9 |
| 20260504201519 | 72 | 159 | 6.0 | 11.0 | 0.00 | 0.00 | 0.00 | 42 | 1010.1 |
| 20260504200019 | 72 | 161 | 7.0 | 12.0 | 0.00 | 0.00 | 0.00 | 43 | 1010.4 |
| 20260504194524 | 71 | 168 | 1.0 | 12.0 | 0.00 | 0.00 | 0.00 | 45 | 1010.6 |
| 20260504193015 | 71 | 177 | 6.0 | 10.0 | 0.00 | 0.00 | 0.00 | 45 | 1010.8 |
| 20260504191517 | 71 | 165 | 9.0 | 15.0 | 0.00 | 0.00 | 0.00 | 46 | 1011.1 |
| 20260504190029 | 70 | 190 | 5.0 | 13.0 | 0.00 | 0.00 | 0.00 | 45 | 1011.5 |
| 20260504184523 | 70 | 194 | 7.0 | 15.0 | 0.00 | 0.00 | 0.00 | 44 | 1011.6 |
| 20260504183023 | 69 | 172 | 7.0 | 14.0 | 0.00 | 0.00 | 0.00 | 47 | 1011.7 |
| 20260504180013 | 70 | 181 | 3.0 | 11.0 | 0.00 | 0.00 | 0.00 | 47 | 1011.8 |
| 20260504174512 | 69 | 165 | 4.0 | 11.0 | 0.00 | 0.00 | 0.00 | 50 | 1012.0 |